Lapse_Rate
3.1 2.8 3.9 3.2 2.6 2.2 2.8 2.9 3.0 3.2 3.2 3.8 3.8 3.8 3.7 3.7 3.5 4.2 4.5 4.9 4.3 4.1 3.9 4.0 3.3 3.6 3.9 3.9 4.3 4.6 4.1 4.3 5.4 5.4 5.2 5.0 5.1 4.8 4.4 4.1 3.8 4.5 4.6
3.1 3.3 3.7 3.7 2.6 2.6 3.3 3.2 3.3 3.5 3.4 3.7 3.9 3.6 3.5 3.6 3.8 4.3 4.8 4.7 4.5 4.0 4.5 4.5 4.0 4.2 4.0 3.9 4.3 4.6 4.7 4.7 5.1 5.0 5.2 5.0 5.1 4.6 4.4 4.3 4.1 4.7 4.3
3.3 3.2 3.1 3.3 2.7 2.9 3.1 3.1 3.3 3.5 3.6 3.8 4.0 4.0 3.8 3.9 3.8 3.9 4.0 4.3 4.3 3.9 5.0 5.2 4.9 4.9 4.7 4.6 4.9 5.0 5.1 5.0 5.0 4.9 5.0 4.4 4.7 4.3 3.6 3.5 3.2 3.1 3.4
3.3 3.1 3.2 3.1 3.1 3.0 2.7 2.9 3.3 3.9 3.6 4.0 4.0 4.0 4.0 4.0 3.7 3.6 3.8 4.1 4.3 4.5 4.4 4.7 5.0 5.1 4.6 4.8 4.4 4.4 4.7 5.0 5.3 5.2 5.1 4.4 4.0 3.9 4.5 4.3 4.1 3.1 3.5
3.1 3.3 3.4 2.8 2.7 2.8 2.3 2.6 3.0 3.5 3.8 4.0 4.0 3.9 3.9 3.9 3.7 3.4 4.0 4.5 4.0 4.2 4.8 4.9 4.0 4.4 3.8 4.5 4.4 4.7 5.0 4.9 5.2 4.6 4.5 4.3 4.2 4.4 4.8 3.7 4.0 2.7 2.7
2.9 3.6 3.4 3.1 3.1 3.0 2.4 2.5 2.8 3.0 3.4 3.8 4.1 4.2 4.0 4.0 -0.4 1.4 3.3 4.4 4.5 4.6 4.7 4.7 3.8 2.7 2.1 1.6 2.3 2.4 3.6 4.4 4.3 5.3 4.4 4.5 4.1 4.3 3.2 3.7 3.0 3.9 5.3
2.8 3.6 3.6 3.6 3.6 3.2 2.8 2.7 2.7 2.8 2.9 3.5 3.8 4.2 4.1 3.0 -1.4 -0.1 1.5 4.6 4.5 4.8 4.3 5.0 4.8 4.1 4.1 3.9 1.4 1.6 1.7 2.8 3.3 2.9 3.6 4.0 3.6 3.4 3.0 2.4 2.6 3.5 4.2
2.7 3.6 3.6 4.0 3.8 3.1 2.8 2.6 1.8 1.9 2.6 2.9 3.4 3.7 3.7 2.2 -1.4 -0.7 1.5 4.2 4.4 4.6 4.7 5.1 4.7 4.8 3.8 4.4 4.5 4.8 4.2 3.8 3.5 4.2 4.1 3.7 3.8 2.6 3.2 3.2 2.9 2.2 2.1
2.8 3.2 3.7 3.9 3.2 2.7 2.7 2.0 1.7 1.6 1.9 2.4 3.0 3.3 3.5 2.2 -2.0 -1.2 3.7 4.7 4.8 4.8 4.9 4.1 4.7 5.0 -0.4 1.4 4.9 4.6 3.4 2.4 -0.5 1.4 2.4 2.2 2.2 1.9 2.5 2.0 2.6 3.6 3.6
2.8 3.3 3.2 3.6 3.2 2.9 2.1 1.7 1.7 1.7 2.1 2.4 2.7 3.3 2.5 2.7 -2.1 -1.0 3.2 4.3 3.9 4.0 4.2 3.9 1.6 2.9 -1.7 0.4 3.0 2.9 3.0 2.4 1.4 0.2 0.7 0.3 -0.5 -0.3 1.4 2.8 2.9 3.8 2.7
3.1 2.7 2.7 2.8 2.8 2.3 1.3 1.1 1.6 1.6 1.5 2.0 2.4 2.1 2.7 2.5 0.4 -2.3 0.2 3.8 3.9 3.3 3.6 3.7 3.6 -0.1 -1.9 -2.1 0.9 2.1 2.4 0.9 -0.6 -0.0 0.5 0.7 0.1 0.1 0.5 0.6 1.4 2.9 2.6
2.6 2.8 2.2 2.1 3.9 2.4 1.9 1.3 1.5 1.4 1.5 1.2 1.7 1.9 1.7 1.4 -0.2 -2.9 -2.0 1.7 1.0 3.4 3.2 3.0 2.3 -2.2 -2.9 -3.6 -1.0 0.2 -2.4 -0.3 1.6 1.3 1.2 0.7 0.5 0.6 0.1 -0.2 -0.2 0.2 0.8
2.0 2.0 1.6 1.5 2.6 2.3 2.2 1.8 1.8 1.4 2.1 1.5 2.0 2.3 2.0 1.3 0.5 -1.4 -2.3 -1.6 -1.1 2.9 3.0 1.9 -2.4 -3.6 -4.1 -3.5 -2.2 -3.5 -2.6 2.0 1.9 1.9 1.4 0.9 1.0 -0.0 -1.0 -0.6 -0.3 -0.3 -1.0
2.2 1.5 0.7 1.2 1.6 2.3 2.7 2.8 2.7 2.1 2.2 2.8 2.5 2.5 2.2 1.5 1.1 0.2 0.4 -0.3 -1.7 0.2 -1.6 -1.4 -2.6 -2.6 -2.1 -1.5 -1.2 -1.5 1.3 2.1 2.4 1.9 1.0 -0.4 -1.1 -0.3 0.5 1.4 1.0 1.2 1.9
2.0 1.6 0.7 1.3 1.6 1.8 2.5 2.4 3.6 2.9 3.1 3.2 2.9 2.9 2.3 2.3 1.9 0.1 0.4 1.0 1.4 0.1 -1.5 -0.5 0.1 0.4 0.5 0.4 0.6 0.6 0.7 0.5 1.5 -0.1 0.1 0.0 0.5 0.9 1.1 1.4 2.1 2.3 2.7
1.7 1.5 1.3 1.5 1.1 1.9 1.7 0.8 -4.3 -1.3 -1.5 -1.9 -1.4 2.1 2.5 1.6 -1.9 -3.1 -3.3 -2.8 -4.2 -3.6 0.9 1.3 1.3 1.2 1.3 1.0 1.0 0.9 0.6 0.2 1.0 0.7 0.4 1.0 1.6 2.0 1.8 1.7 3.2 2.7 1.1
2.3 1.4 1.2 1.4 1.6 1.8 1.9 2.2 2.5 -0.5 -3.4 -3.5 -3.3 -2.9 -1.0 1.5 -3.5 -3.3 -3.9 -5.0 -5.0 -1.9 3.1 1.8 2.0 1.5 1.7 1.2 1.1 1.2 1.4 0.7 -0.3 0.6 0.7 0.9 1.5 2.0 2.2 2.7 2.6 2.4 2.0
1.5 -1.5 1.5 2.2 2.2 2.4 2.4 2.5 2.9 2.5 2.5 1.4 -3.3 -2.0 -3.8 -2.5 -3.6 -4.4 -5.3 -3.8 -1.4 -1.1 1.5 2.4 2.3 1.5 0.9 0.9 0.7 0.8 0.7 -0.2 -0.3 -0.1 0.3 0.7 1.7 2.2 2.5 2.4 1.7 1.3 1.5
1.2 0.9 2.1 2.0 2.1 1.5 1.9 2.0 2.1 2.1 2.3 1.0 -1.6 -3.0 -4.7 -5.2 -5.3 -5.9 -4.7 2.9 2.3 1.2 0.7 1.2 1.8 1.5 0.6 0.2 0.1 0.3 0.3 -0.5 -0.5 -0.6 -0.6 0.3 1.6 2.8 2.9 1.9 1.6 0.7 0.4
1.2 -1.0 0.3 1.5 1.7 1.5 1.5 1.4 1.6 0.9 0.9 1.0 0.8 1.9 -3.5 -2.7 -1.1 -1.5 -2.0 0.5 2.1 2.4 1.5 1.4 1.2 0.9 0.8 0.2 -0.7 -0.4 -0.4 -1.9 -1.5 -0.5 -0.1 0.6 1.7 2.8 2.9 2.1 2.2 2.5 3.0
1.5 -0.7 0.0 1.6 1.4 2.0 1.5 1.7 1.1 1.5 1.4 1.0 1.2 -0.6 -5.3 0.1 0.7 0.1 -0.7 -0.7 0.8 1.7 1.4 1.2 1.2 0.8 0.6 -0.4 -0.4 -0.6 -0.6 -1.1 -0.9 -0.6 -0.1 0.6 1.6 2.8 2.6 1.8 2.7 2.6 1.8
0.6 -0.7 -0.0 1.8 1.7 1.6 1.5 1.5 0.7 1.1 1.2 1.0 1.1 -1.9 -7.8 -0.2 1.0 0.7 0.3 -0.1 0.1 0.8 1.5 1.1 1.3 0.6 0.0 -0.3 -0.9 -0.9 -0.4 -0.6 -0.7 -0.5 -0.2 0.9 1.2 1.3 2.2 2.1 1.9 1.4 1.4
0.8 -1.0 -0.7 0.6 0.7 -0.6 -0.2 0.8 1.2 0.8 0.8 0.7 0.8 -1.4 -3.6 -1.2 0.4 0.7 0.4 0.2 -0.4 -0.2 0.4 0.3 0.6 -0.0 -0.2 -0.7 -0.6 -0.9 -1.1 -2.1 -1.8 -1.0 -1.0 0.1 -0.3 0.2 1.4 2.3 2.1 0.9 2.4
0.9 0.3 -0.9 -0.6 -0.7 -0.4 0.3 0.7 0.3 -1.7 0.9 -0.0 -1.1 -0.9 -1.1 -0.9 -0.7 -0.1 0.2 -0.1 -0.8 -0.4 -0.1 -0.5 0.1 0.2 -0.9 -1.3 -1.5 -1.3 -0.7 -0.6 -0.7 -0.4 -0.4 -1.1 -0.7 0.1 -0.1 2.3 1.9 2.4 2.3
0.8 0.8 0.0 -1.3 -0.9 -0.9 -0.5 0.2 -0.4 -0.3 0.4 -0.2 -0.3 -0.3 -0.7 -1.6 -1.0 -0.7 -0.6 -0.8 -1.2 -1.3 -1.4 -1.2 -0.9 -0.7 -1.3 -1.1 -1.4 -1.5 -2.6 -1.7 -0.8 -0.7 -0.4 0.1 -0.4 0.4 1.9 2.5 1.8 1.4 1.4
2.2 -0.2 1.4 -1.4 -1.3 -0.8 -0.4 -0.5 -0.9 -0.8 -0.4 -0.8 -0.8 -0.4 -0.3 -0.2 -0.8 -1.7 -2.1 -2.1 -2.3 -2.2 -2.4 -2.8 -2.6 -1.9 -2.2 -2.0 -2.2 -4.9 -4.7 -4.3 -3.3 -1.7 -1.0 -1.0 -0.5 1.5 2.5 2.1 1.7 2.1 1.6
Wind_Speed
5 4 5 5 5 4 4 4 4 3 3 3 3 4 4 5 4 5 3 3 5 5 5 6 7 7 6 7 5 6 7 8 9 6 7 9 11 11 11 13 13 10 11
5 4 4 5 5 5 4 4 4 3 2 2 4 4 5 5 4 5 4 5 6 5 6 7 8 7 8 7 7 8 8 7 9 12 5 4 11 10 8 6 7 7 8
5 5 5 4 5 5 5 4 4 4 4 3 4 5 5 5 5 4 5 6 6 5 6 7 8 10 8 8 8 8 8 8 8 7 5 3 5 5 4 3 3 5 6
5 5 6 5 5 4 5 5 5 4 4 4 4 6 5 5 5 5 6 6 6 6 7 6 7 10 11 9 8 9 9 9 9 8 7 6 4 3 2 3 3 1 2
6 6 6 5 5 5 5 5 5 5 4 4 6 6 6 5 4 6 7 8 6 7 7 6 6 10 10 10 8 8 10 8 7 7 5 3 3 3 4 2 2 2 1
6 6 5 6 6 5 5 5 5 5 5 4 5 7 6 4 9 9 8 7 6 7 8 7 7 10 9 12 12 9 8 8 8 6 3 5 4 4 3 3 3 2 2
6 6 6 6 6 5 5 5 5 5 4 4 4 4 5 5 8 10 9 5 5 6 8 8 8 6 9 10 11 12 10 10 4 4 7 3 4 6 6 4 3 2 2
6 6 6 6 7 6 6 5 4 3 4 4 4 4 5 4 10 9 10 8 6 7 7 7 9 9 7 9 9 6 4 3 1 1 3 4 3 7 6 4 4 5 4
7 7 6 6 7 7 6 6 3 4 3 2 3 5 6 5 7 10 8 7 8 9 7 6 8 8 8 10 7 5 3 2 6 4 4 3 6 15 13 6 4 4 2
8 8 7 7 9 8 7 7 4 3 4 4 4 3 6 6 6 9 7 6 7 5 4 5 9 8 8 7 5 3 4 4 5 6 5 7 7 9 16 3 5 5 4
8 6 7 6 8 8 7 4 5 5 5 4 5 3 4 4 6 7 8 5 5 5 5 4 4 9 9 4 5 3 2 5 6 6 5 5 5 5 3 2 5 5 4
8 8 7 6 5 6 9 5 5 6 6 5 5 4 3 1 4 7 9 7 7 5 5 3 3 6 7 8 5 5 8 6 6 6 6 4 5 5 5 10 13 14 12
7 8 7 7 5 6 7 7 4 5 6 4 3 3 3 3 2 5 6 7 8 4 3 5 8 8 9 6 3 7 8 5 6 5 5 4 4 6 12 12 16 20 21
10 7 7 8 6 5 4 6 6 6 4 5 4 4 3 2 3 3 3 4 7 5 7 5 6 6 5 5 4 4 4 4 5 6 5 6 7 6 6 6 8 8 9
10 7 7 6 8 7 5 5 7 7 9 7 6 6 6 4 5 7 7 5 4 5 7 3 2 2 3 3 2 3 3 4 5 5 7 7 8 7 6 6 7 5 7
10 7 7 7 6 7 7 4 7 1 9 6 7 9 6 8 12 13 10 7 12 14 3 3 3 4 5 5 4 4 3 5 5 7 7 8 9 8 8 5 6 7 8
13 10 7 8 8 8 7 7 7 2 4 7 9 10 10 12 13 13 11 9 11 8 2 4 4 6 7 7 6 6 5 5 5 7 7 7 7 8 8 8 7 7 8
13 15 10 9 8 8 9 9 8 7 7 4 4 7 9 5 8 9 16 13 4 3 3 5 7 7 7 7 7 6 5 5 6 7 7 7 7 9 8 8 7 8 7
13 11 11 10 9 9 8 8 8 8 8 4 3 2 5 7 8 11 16 5 7 7 7 7 6 6 7 7 7 7 7 7 7 7 7 8 8 9 8 8 8 10 11
13 15 13 10 8 9 8 9 8 8 7 7 6 8 6 5 5 6 7 7 6 6 7 8 7 6 7 7 7 7 6 6 7 7 8 8 8 9 9 10 9 10 8
11 10 15 10 10 11 10 10 9 9 9 8 9 8 11 8 9 8 8 8 8 8 9 9 8 8 8 7 6 8 9 9 8 8 9 8 8 9 7 7 5 5 7
12 11 12 13 10 10 11 10 10 10 10 9 9 6 11 8 7 8 9 9 10 10 9 9 8 8 9 10 10 9 8 9 9 9 10 11 9 7 7 5 8 6 5
9 12 12 11 11 11 8 9 10 10 10 10 9 7 8 8 9 9 9 9 8 8 8 8 9 8 8 8 12 10 12 14 14 14 14 13 13 12 11 7 5 7 4
10 11 14 11 10 10 11 11 10 11 11 9 9 9 9 10 10 11 10 8 8 9 9 9 9 12 9 9 13 15 15 15 18 20 22 16 15 16 13 11 7 7 5
8 10 11 11 11 11 10 10 9 10 10 9 10 10 9 8 8 9 8 7 7 7 9 9 7 9 11 13 12 14 18 28 26 29 24 19 18 17 13 11 11 8 8
7 9 8 9 9 10 9 10 9 9 9 9 8 8 9 10 9 7 6 7 6 6 6 6 7 10 13 14 19 24 32 33 32 34 31 23 16 12 11 13 15 9 10
Wind_Direction
161 161 190 165 153 164 155 143 147 138 147 148 118 109 113 107 112 110 109 113 106 118 107 111 107 116 112 102 105 98 99 107 107 106 109 118 112 113 106 112 133 150 165
162 167 188 160 144 167 158 156 149 142 158 172 133 119 119 120 122 128 131 95 99 90 104 102 97 105 103 100 100 101 110 105 114 120 121 124 127 123 121 122 149 143 151
153 158 152 163 143 155 163 155 143 138 140 131 123 121 128 130 122 110 104 97 88 88 98 105 119 118 112 111 113 115 110 109 111 107 106 84 103 109 105 111 115 114 123
152 151 152 162 144 143 141 134 129 139 134 127 125 124 124 123 118 110 99 96 90 89 90 99 106 116 122 124 114 110 112 116 120 123 108 89 94 94 102 131 134 137 115
154 157 163 134 123 125 127 126 129 131 127 126 118 121 127 122 123 117 108 113 92 91 89 90 79 101 110 121 127 123 124 125 126 121 110 107 115 145 165 155 109 96 90
163 168 151 132 129 130 133 138 135 133 129 127 128 136 139 130 137 124 128 129 116 113 103 99 105 98 97 100 104 92 113 134 130 131 127 145 148 149 141 134 128 156 156
167 162 153 145 137 143 140 135 138 142 140 133 123 134 136 137 144 144 127 131 113 111 114 122 115 116 113 108 92 94 102 107 102 125 143 146 144 165 145 137 158 158 122
172 169 154 152 144 145 134 135 125 124 144 138 133 137 131 130 152 137 122 123 119 110 121 124 125 116 103 115 116 118 114 87 83 143 163 175 176 161 157 155 146 115 99
176 175 168 157 152 152 149 152 147 132 128 140 145 139 133 145 145 134 123 127 127 127 124 119 127 121 126 124 117 118 89 97 48 137 133 151 163 162 152 124 127 123 90
184 184 168 157 155 165 158 162 147 135 136 132 124 143 131 146 161 149 135 127 121 122 92 107 99 121 131 134 108 129 151 162 137 115 111 84 106 162 162 94 152 144 135
181 162 162 165 164 164 153 157 143 132 122 118 113 120 135 161 170 171 148 136 134 135 144 145 154 143 153 161 113 145 159 136 119 120 114 96 80 93 105 105 140 134 136
164 165 166 173 162 147 160 149 143 136 132 135 127 107 96 111 149 185 174 143 147 140 157 163 159 171 166 167 177 176 122 129 128 118 112 107 109 107 92 92 92 86 78
159 171 167 160 164 155 149 146 139 144 149 157 156 150 149 135 139 181 189 162 164 149 158 165 145 158 157 161 194 140 146 159 137 141 147 141 133 119 110 97 93 90 76
173 178 161 161 159 158 145 158 156 162 160 163 166 174 168 159 164 162 170 154 129 98 102 92 98 99 85 105 111 155 183 182 161 153 149 131 130 136 135 135 116 108 97
176 175 169 168 170 167 155 172 178 188 178 177 192 176 168 194 213 182 166 169 173 133 111 102 107 110 137 155 153 168 170 157 150 140 143 145 149 148 141 135 131 125 119
174 173 180 171 174 171 166 148 47 28 207 218 177 173 199 197 174 181 188 159 133 143 104 150 177 182 182 185 182 179 188 182 169 157 157 159 158 155 147 141 131 127 124
177 176 172 175 178 177 180 183 190 57 113 183 190 200 190 186 178 188 180 130 157 153 156 174 188 194 204 199 194 190 190 189 157 166 165 164 155 150 147 145 126 116 114
177 166 173 183 186 187 190 196 197 194 199 186 206 196 215 198 195 165 137 120 133 243 201 195 206 201 201 200 199 203 193 173 181 172 168 162 157 152 148 141 137 130 126
174 176 182 182 184 183 186 190 195 196 200 170 142 144 113 138 140 147 167 184 187 199 210 219 211 201 200 197 201 200 193 187 180 170 166 160 158 154 146 141 138 145 145
184 175 174 178 176 182 184 189 192 194 194 194 193 203 144 130 178 181 195 204 201 207 207 216 219 210 202 196 191 187 183 169 173 175 170 163 161 157 153 152 155 157 161
181 173 174 176 184 188 189 194 195 198 203 203 211 190 177 185 198 191 194 202 210 213 213 214 215 213 205 190 186 184 183 179 176 168 162 157 154 151 147 130 88 82 106
176 175 179 190 185 188 194 192 194 197 201 202 212 188 173 199 198 199 202 205 209 214 215 213 216 211 198 190 183 178 182 180 174 167 158 148 129 116 103 101 112 114 102
194 172 183 188 191 185 178 191 194 198 204 207 204 181 183 203 211 211 210 211 207 209 210 209 213 210 198 195 193 189 185 182 178 169 161 151 140 132 123 122 133 119 132
172 201 179 185 182 185 188 193 196 199 202 202 200 199 197 202 207 214 214 209 206 210 208 209 215 214 201 194 192 193 192 182 171 166 154 148 140 134 132 135 135 120 131
183 195 193 179 180 186 189 194 200 204 207 204 206 208 205 204 208 212 215 208 202 200 209 210 210 208 189 186 181 171 151 147 147 148 143 136 130 136 141 136 138 150 136
200 182 214 177 175 180 188 192 199 197 212 211 207 213 207 212 216 211 205 200 201 205 196 193 193 185 173 172 160 147 148 144 143 145 140 135 137 141 144 141 152 149 148